Regional Weather Roundup
Issued by NWS Midland/Odessa, TX

Skip options and go directly to product.
Home | Oldest Version | Previous Version | Current Version | All | Text Only | Save Text | Print | Product List | Glossary On

Skip product version selection by date and time.   
905
ASUS44 KMAF 270010
RWRMAF
MIDLAND AREA WEATHER ROUNDUP
NATIONAL WEATHER SERVICE MIDLAND TX
600 PM CST WED NOV 26 2014

...IN SOUTHWEST TEXAS AND SOUTHEAST NEW MEXICO...

CITY           SKY/WX    TMP DP  RH WIND       PRES   REMARKS
ALPINE         CLEAR     58  20  23 SW8       30.32R
ANDREWS        FAIR      51  28  41 SE7       30.27S
ARTESIA        NOT AVBL
BIG SPRING     CLEAR     54  31  42 E5        30.30R
CARLSBAD       CLEAR     62  23  22 E3        30.23R
DRYDEN           N/A     66  17  15 S6        30.20R
FORT STOCKTON  CLEAR     58  20  22 E7        30.25R
GUAD PASS      CLEAR     56  21  25 NW9G17    30.32R
HOBBS          CLEAR     54  28  37 E3        30.27S
MARFA          CLEAR     55  16  21 W9        30.31R
MIDLAND AIRPK  CLEAR     56  31  38 CALM      30.28R
MIDLAND INTL   CLEAR     54  29  38 NE7       30.27R
ODESSA         CLEAR     53  26  35 NE7       30.28R
PECOS          CLEAR     62  24  23 E7        30.23R
PRESIDIO       FAIR      64  21  19 S3        30.24S
SEMINOLE       CLEAR     54  28  36 CALM      30.28R
SNYDER         CLEAR     53  32  45 NE5       30.30R
WINK           CLEAR     60  21  22 NE8       30.23R
$$
...OTHER STATIONS IN TEXAS...

CITY           SKY/WX    TMP DP  RH WIND       PRES   REMARKS
ABILENE        CLEAR     54  35  48 N8        30.29R
AMARILLO       CLEAR     44  23  43 E3        30.31R
AUSTIN         CLEAR     67  32  27 CALM      30.21R
BROWNSVILLE    CLEAR     60  49  66 SE8       30.24S
CORPUS CHRISTI CLEAR     61  46  57 S7        30.22R
DALLAS FTW     PTCLDY    56  34  43 N8        30.25R
DEL RIO        CLEAR     66  32  28 S5        30.19R
EL PASO        CLEAR     63  19  18 S3        30.26S
HOUSTON INT    CLEAR     61  40  45 CALM      30.22R
LUBBOCK        PTCLDY    49  26  41 E5        30.29R
SAN ANGELO     CLEAR     57  33  40 NE8       30.26R
SAN ANTONIO    CLEAR     66  33  29 S7        30.20R
WACO           CLEAR     54  34  46 N5        30.24R
WICHITA FALLS  NOT AVBL
$$
...OTHER LOCATIONS IN NEW MEXICO...

CITY           SKY/WX    TMP DP  RH WIND       PRES   REMARKS
ALAMAGORDO     CLEAR     59  19  21 MISG      30.26F
ALBUQUERQUE    PTCLDY    58  23  26 N13G23    30.32R
CANNON AFB     CLEAR     47  27  45 E8        30.28R
CLOVIS         CLEAR     45  25  45 E8        30.28R
HOLLOMAN AFB   CLEAR     60  21  22 N6        30.26S
ROSWELL        CLEAR     57  25  29 S7        30.23R
RUIDOSO        CLEAR     48  21  34 NW14G20   30.37R
SANTA FE       CLEAR     49  18  29 N5        30.33S
TRUTH OR CONSE CLEAR     59  22  24 E5        30.29S
TUCUMCARI      CLEAR     45  28  51 E9        30.25R
$$

USA.gov is the U.S. government's official web portal to all federal, state and local government web resources and services.